This is the latest recevied weather packets stored in our database for station/object K7SPS-10. If no packets are shown the sender has not sent any weather packets the latest 10 day(s).
| Time | Temp. | Humidity | Pressure | Rain* | Wind** | Luminosity | Snow |
|---|---|---|---|---|---|---|---|
| 1777747884 | 20.56° C | 39% | 1017.1 hPa | 0 mm | - | 611 W/m² | - |
| 1777747580 | 20.56° C | 40% | 1017.3 hPa | 0 mm | - | 710 W/m² | - |
| 1777747275 | 20° C | 43% | 1017.3 hPa | 0 mm | - | 658 W/m² | - |
| 1777746972 | 20° C | 41% | 1017.3 hPa | 0 mm | - | 603 W/m² | - |
| 1777746668 | 20° C | 42% | 1017.6 hPa | 0 mm | - | 618 W/m² | - |
| 1777746363 | 19.44° C | 42% | 1017.6 hPa | 0 mm | - | 491 W/m² | - |
| 1777746059 | 20° C | 42% | 1017.5 hPa | 0 mm | - | 467 W/m² | - |
| 1777745757 | 19.44° C | 42% | 1017.6 hPa | 0 mm | - | 500 W/m² | - |
| 1777745456 | 18.89° C | 43% | 1017.8 hPa | 0 mm | - | 515 W/m² | - |
| 1777745152 | 19.44° C | 43% | 1017.6 hPa | 0 mm | - | 648 W/m² | - |
| 1777744844 | 18.89° C | 43% | 1017.6 hPa | 0 mm | - | 697 W/m² | - |
| 1777744543 | 18.89° C | 42% | 1017.6 hPa | 0 mm | - | 645 W/m² | - |
| 1777744240 | 18.89° C | 42% | 1018 hPa | 0 mm | - | 696 W/m² | - |
| 1777743937 | 18.89° C | 44% | 1017.8 hPa | 0 mm | - | 661 W/m² | - |
| 1777743633 | 18.89° C | 46% | 1017.8 hPa | 0 mm | - | 641 W/m² | - |
| 1777743331 | 18.89° C | 47% | 1017.8 hPa | 0 mm | - | 601 W/m² | - |
| 1777743029 | 18.89° C | 46% | 1017.8 hPa | 0 mm | - | 649 W/m² | - |
| 1777742726 | 18.33° C | 47% | 1017.8 hPa | 0 mm | - | 633 W/m² | - |
| 1777742422 | 18.89° C | 49% | 1018.1 hPa | 0 mm | - | 650 W/m² | - |
| 1777742118 | 18.33° C | 49% | 1017.9 hPa | 0 mm | - | 655 W/m² | - |
| 1777741815 | 18.33° C | 49% | 1017.9 hPa | 0 mm | - | 631 W/m² | - |
| 1777741512 | 18.33° C | 48% | 1018 hPa | 0 mm | - | 579 W/m² | - |
| 1777741208 | 18.89° C | 49% | 1017.8 hPa | 0 mm | - | 581 W/m² | - |
| 1777740905 | 18.33° C | 51% | 1018 hPa | 0 mm | - | 542 W/m² | - |
| 1777740602 | 17.78° C | 51% | 1018.1 hPa | 0 mm | - | 552 W/m² | - |
* Rain latest hour (hover to see other rain measurements)
** Current wind speed in m/s (hover to see current wind gust speed)